Location: Lake Crest
(37.6062°N, 88.9176°W)
Time: 15:57:24
(UTC+00:00)

DMSP B5D1-3 - Pass Details

Date: 15 December 2019
Orbit: 766 x 781 km, 98.5° (Epoch: 25 January)

Event Time Altitude Azimuth Distance (km) Brightness Sun altitude
Exits shadow 00:47:39 42° 8° (N) 1,098 5.1 -24.9°
Maximum altitude 00:49:26 84° 285° (WNW) 782 4.5 -25.2°
Drops below altitude 10° 00:54:32 10° 197° (SSW) 2,304 7.3 -26.2°
Sets 00:56:49 0° 197° (SSW) 3,225 8.1 -26.7°
